Weather History for KIML - June, 2013

Change the Weather History Date:

Wednesday, June 19, 2013

  Actual Average Record
Temperature  
Mean Temperature 72 °F 71 °F  
Max Temperature 86 °F 85 °F 106 °F (1899)
Min Temperature 57 °F 57 °F 40 °F (1906)
Degree Days  
Heating Degree Days 0 1  
Month to date heating degree days 24 29  
Since 1 June heating degree days 24 29  
Cooling Degree Days 7 7  
Month to date cooling degree days 113 93  
Year to date cooling degree days 181 137  
Since 1 June cooling degree days 113 93  
Growing Degree Days 20 (Base 50)    
Moisture  
Dew Point 57 °F    
Average Humidity 65    
Maximum Humidity 86    
Minimum Humidity 44    
Precipitation  
Precipitation 0.00 in 0.10 in 1.72 in (1970)
Sea Level Pressure  
Sea Level Pressure 29.81 in    
Wind  
Wind Speed 17 mph (SSE)    
Max Wind Speed 32 mph    
Max Gust Speed 43 mph    
Visibility 10 miles    
Events      
T = Trace of Precipitation, MM = Missing Value Source: NWS Daily Summary

Daily Weather History Graph

Daily Weather History Graph

Search for Another Location

Airport or City:

Trip Planner

Search our weather history database for the weather conditions in past years. The results will help you decide how hot, cold, wet, or windy it might be!

Date:

Astronomy

Jun. 19, 2013 Rise Set
Actual Time 5:15 AM MDT 8:20 PM MDT
Civil Twilight 4:42 AM MDT 8:53 PM MDT
Nautical Twilight 4:00 AM MDT 9:35 PM MDT
Astronomical Twilight 3:10 AM MDT 10:25 PM MDT
Moon 4:14 PM MDT (6/19) 2:02 AM MDT (6/19)
Length of Visible Light 16h 10m
Length of Day
15h 04m
Waxing Gibbous, 81% of the Moon is Illuminated
Jun 19
Waxing Gibbous
Jun 23
Full
Jun 29
Last Quarter
Jul 8
New
Jul 15
First Quarter

Hourly Weather History & Observations

Time (MDT) Temp. Heat Index Dew Point Humidity Pressure Visibility Wind Dir Wind Speed Gust Speed Precip Events Conditions
12:04 AM 73.4 °F - 46.4 °F 38% 29.96 in 8.0 mi SSW 16.1 mph 20.7 mph N/A   Mostly Cloudy
12:19 AM 73.4 °F - 46.4 °F 38% 29.96 in 9.0 mi SW 13.8 mph 20.7 mph N/A   Scattered Clouds
12:53 AM 71.1 °F - 48.0 °F 44% 29.86 in 10.0 mi WSW 9.2 mph - N/A   Clear
1:53 AM 66.9 °F - 48.9 °F 52% 29.91 in 10.0 mi Calm Calm - N/A   Clear
2:53 AM 64.9 °F - 52.0 °F 63% 29.90 in 10.0 mi NNW 5.8 mph - N/A   Clear
3:53 AM 59.0 °F - 54.0 °F 83% 29.88 in 10.0 mi SE 4.6 mph - N/A   Clear
4:53 AM 57.9 °F - 53.1 °F 84% 29.87 in 10.0 mi Calm Calm - N/A   Clear
5:53 AM 57.0 °F - 53.1 °F 87% 29.88 in 10.0 mi SE 4.6 mph - N/A   Clear
6:53 AM 64.0 °F - 55.0 °F 73% 29.86 in 10.0 mi SSE 10.4 mph - N/A   Clear
7:53 AM 68.0 °F - 57.0 °F 68% 29.86 in 10.0 mi SSE 15.0 mph - N/A   Clear
8:53 AM 71.1 °F - 59.0 °F 66% 29.85 in 10.0 mi SSE 13.8 mph - N/A   Clear
9:53 AM 75.0 °F - 59.0 °F 57% 29.83 in 10.0 mi SSE 12.7 mph - N/A   Clear
10:53 AM 78.1 °F - 59.0 °F 52% 29.82 in 10.0 mi SSE 17.3 mph 24.2 mph N/A   Overcast
11:53 AM 80.1 °F 81.1 °F 61.0 °F 52% 29.79 in 10.0 mi South 20.7 mph 28.8 mph N/A   Overcast
12:53 PM 82.0 °F 83.0 °F 62.1 °F 51% 29.76 in 10.0 mi South 21.9 mph 34.5 mph N/A   Scattered Clouds
1:53 PM 81.0 °F 81.9 °F 62.1 °F 52% 29.76 in 10.0 mi SSE 26.5 mph 34.5 mph N/A   Overcast
2:53 PM 82.9 °F 83.7 °F 62.1 °F 49% 29.74 in 10.0 mi SSE 27.6 mph 36.8 mph N/A   Mostly Cloudy
3:53 PM 84.9 °F 85.0 °F 61.0 °F 44% 29.73 in 10.0 mi SSE 27.6 mph 36.8 mph N/A   Scattered Clouds
4:53 PM 84.0 °F 84.4 °F 61.0 °F 46% 29.72 in 10.0 mi South 26.5 mph 36.8 mph N/A   Scattered Clouds
5:53 PM 84.0 °F 84.4 °F 61.0 °F 46% 29.71 in 10.0 mi SSE 25.3 mph 36.8 mph N/A   Scattered Clouds
6:53 PM 82.0 °F 82.4 °F 60.1 °F 47% 29.70 in 10.0 mi SSE 24.2 mph 34.5 mph N/A   Clear
7:53 PM 79.0 °F - 59.0 °F 50% 29.70 in 10.0 mi SSE 20.7 mph 27.6 mph N/A   Clear
8:53 PM 75.9 °F - 60.1 °F 58% 29.72 in 10.0 mi SE 19.6 mph - N/A   Clear
9:53 PM 73.9 °F - 60.1 °F 62% 29.74 in 10.0 mi SSE 20.7 mph 28.8 mph N/A   Clear
10:53 PM 73.0 °F - 60.1 °F 64% 29.73 in 10.0 mi SSE 17.3 mph 27.6 mph N/A   Clear
11:53 PM 71.1 °F - 60.1 °F 68% 29.72 in 10.0 mi SSE 24.2 mph 32.2 mph N/A   Clear